Regional Weather Roundup
Issued by NWS

Home | Current Version | Previous Version | Graphics & Text | Print | Product List | Glossary Off
Versions: 1 2 3 4 5 6 7 8 9 10 11 12 13 14 15 16 17 18 19 20 21 22 23 24 25 26 27 28 29 30 31 32 33 34 35 36 37 38 39 40 41 42 43 44 45 46 47 48 49 50

000
ASUS43 KLOT 252312
RWRIL

ILLINOIS REGIONAL WEATHER ROUNDUP
NATIONAL WEATHER SERVICE CHICAGO/ROMEOVILLE IL
500 PM CST SAT FEB 25 2017

NOTE: "FAIR" INDICATES FEW OR NO CLOUDS BELOW 12,000 FEET WITH NO
SIGNIFICANT WEATHER AND/OR OBSTRUCTIONS TO VISIBILITY.

* THESE STATIONS ARE NOT UNDER NWS QUALITY CONTROL. THEY ALSO MAY NOT
  REPORT WEATHER SUCH AS PRECIPITATION OR FOG.

ILZ001-002-007-009-015-016-024-260000-
NORTHWEST ILLINOIS

CITY           SKY/WX    TMP DP  RH WIND       PRES   REMARKS
MOLINE         CLEAR     31  17  56 W13G21    30.03R WCI  21
STERLING*      CLEAR     29  16  58 W13       30.00R WCI  19
$$

ILZ003-004-008-010-011-017-018-260000-
NORTH CENTRAL ILLINOIS

CITY           SKY/WX    TMP DP  RH WIND       PRES   REMARKS
ROCKFORD       MOCLDY    27  14  58 NW14G21   29.98R WCI  16
FREEPORT*      CLEAR     25  13  60 W14       29.99R WCI  13
ROCHELLE*      CLEAR     28  14  57 NW17      29.98R WCI  15
DE KALB*       PTCLDY    26  16  66 NW13      29.96R WCI  15
PERU*          CLEAR     28  15  57 NW22      30.01R WCI  15
$$

ILZ005-006-012>014-019>023-260000-
NORTHEAST ILLINOIS

CITY           SKY/WX    TMP DP  RH WIND       PRES   REMARKS
CHICAGO-OHARE  CLOUDY    27  14  58 W16       29.95R WCI  15
CHICAGO-MIDWAY MOCLDY    28  12  51 W18G25    29.96R WCI  15
AURORA         MOCLDY    28  17  63 W18       29.97R WCI  15
LANSING*       CLOUDY    28  18  68 W18G24    29.96R WCI  15
JOLIET*        CLOUDY    29  17  59 W12G17    29.98R WCI  20
WAUKEGAN       PTCLDY    24  13  62 W10G20    29.92R WCI  14
DUPAGE AIRPORT MOCLDY    26  13  57 NW17      29.95R WCI  13
KANKAKEE*      CLOUDY    28  16  59 W16G23    30.00R WCI  17
WHEELING       CLOUDY    25  13  60 W16       29.96R WCI  12
MORRIS*        CLOUDY    28  18  64 W14       29.98R WCI  17
ROMEOVILLE*    CLOUDY    27  20  72 W17       29.97R WCI  15
NORTHERLY ISL    N/A     27  15  61 SW15        N/A  WCI  15
$$

LMZ740>746-260000-
SOUTHERN LAKE MICHIGAN

STATION/POSITION SKY/WX   TEMP    WIND        PRES    VSBY  WAVE
                          AIR SEA DIR/SP/G                  HT/PER
                          (F)     (DEG/KT/KT) (MB)    (MI)  (FT/S)
HARRISON CRIB              27     280/ 22/ 24   N/A
BURNHAM HARBOR             27     270/  5/ 19   N/A
CALUMET HARBOR             27     260/  8/ 16 1013.9R
BURNS HARBOR               28     280/ 20/ 25 1014.6R
MICHIGAN CITY              26     250/ 26/ 29   N/A
$$

ILZ025>027-034>036-040-047-049-050-058-095>099-260000-
WEST-CENTRAL ILLINOIS

CITY           SKY/WX    TMP DP  RH WIND       PRES   REMARKS
QUINCY         PTCLDY    34  11  38 NW12      30.08R WCI  25
GALESBURG*     CLOUDY    30  18  60 NW12      30.04S WCI  20
MACOMB*        CLOUDY    33  16  49 NW12      30.08S WCI  24
JACKSONVILLE*  PTCLDY    33  11  39 NW9       30.08R WCI  26
PITTSFIELD*    PTCLDY    35  13  39 NW10      30.09S WCI  27
$$

ILZ028>032-037-038-041>044-048-051>054-059>061-260000-
CENTRAL ILLINOIS

CITY           SKY/WX    TMP DP  RH WIND       PRES   REMARKS
PONTIAC        MOCLDY    31  17  58 W14G25    30.01R WCI  20
BLOOMINGTON    PTCLDY    29  17  61 W17       30.02R WCI  17
DECATUR        PTCLDY    33  12  41 NW21G26   30.05R WCI  21
PEORIA         PTCLDY    31  15  52 W13       30.04R WCI  21
LACON*         CLEAR     30  16  54 NW16G22   30.02R WCI  19
LINCOLN*       PTCLDY    33  14  45 W10G16    30.05R WCI  25
SPRINGFIELD    PTCLDY    35  10  35 NW12G23   30.07R WCI  27
TAYLORVILLE    CLEAR     34  12  41 W13G20    30.07R WCI  25
$$

ILZ033-039-045-046-055>057-062-063-260000-
EAST-CENTRAL ILLINOIS

CITY           SKY/WX    TMP DP  RH WIND       PRES   REMARKS
CHAMPAIGN      PTCLDY    32  13  45 W20       30.02R WCI  20
RANTOUL*       PTCLDY    32  19  59 W17       30.01R WCI  21
MATTOON        CLEAR     34  15  46 W20       30.03R WCI  23
PARIS*         CLEAR     33  15  48 W17       30.04R WCI  22
$$

ILZ079-100>102-260000-
SOUTHWEST ILLINOIS

CITY           SKY/WX    TMP DP  RH WIND       PRES   REMARKS
ALTON          PTCLDY    37  10  32 W12       30.10R WCI  30
BELLEVILLE     CLEAR     39  11  31 NW9G18    30.09R WCI  33
CAHOKIA*       CLEAR     40   9  28 NW18      30.11R
SPARTA*        CLEAR     39  12  32 W12       30.11R WCI  32
$$

ILZ064>066-069>071-074>076-080>082-084>086-088>090-092>094-260000-
SOUTH-CENTRAL ILLINOIS

CITY           SKY/WX    TMP DP  RH WIND       PRES   REMARKS
CARBONDALE     CLEAR     41  14  33 W12       30.10S
CAIRO*         CLEAR     43  17  35 W7        30.11S
EFFINGHAM*     PTCLDY   N/A N/A N/A W17       30.08R
MARION         CLEAR     43  12  28 NW17      30.11R
MT. VERNON     CLEAR     38  14  37 W5        30.10R WCI  34
CENTRALIA*     CLEAR     38  18  43 W13       30.09R WCI  30
SALEM*         CLEAR     38  16  40 W17G23    30.09R WCI  29
METROPOLIS*    CLEAR     43  15  32 CALM      30.11R
$$

ILZ067-068-072-073-078-083-087-091-260000-
SOUTHEAST ILLINOIS

CITY           SKY/WX    TMP DP  RH WIND       PRES   REMARKS
LAWRENCEVILLE  MOCLDY    37  18  46 W14       30.07R WCI  28
FLORA*         PTCLDY    39  17  41 W14G20    30.08R WCI  31
FAIRFIELD*     CLEAR     38  16  41 W5        30.08R WCI  34
HARRISBURG*    CLEAR     40  18  41 NW13      30.10R
ROBINSON*      MOCLDY    35  18  50 NW15G22   30.07S WCI  25
CARMI*         CLEAR     38  18  44 W13       30.09R WCI  30
$$

ABBREVIATIONS USED IN REMARKS
   TC - TEMPERATURE IN CELSIUS
  WCI - WIND CHILL INDEX
   HX - HEAT INDEX
  VSB - VISIBILITY
$$




USA.gov is the U.S. government's official web portal to all federal, state and local government web resources and services.